Regional Weather Roundup
Issued by NWS

Current Version | Previous Version | Text Only | Print | Product List | Glossary On
Versions: 1 2 3 4 5 6 7 8 9 10 11 12 13 14 15 16 17 18 19 20 21 22 23 24 25 26 27 28 29 30 31 32 33 34 35 36 37 38 39 40 41 42 43 44 45 46 47 48 49 50
190
ASUS42 KFFC 240910
RWRGA
WEATHER ROUNDUP FOR GEORGIA
NATIONAL WEATHER SERVICE PEACHTREE CITY GA
500 AM EDT SAT JUN 24 2017

NOTE: "FAIR" INDICATES FEW OR NO CLOUDS BELOW 12,000 FEET WITH NO
SIGNIFICANT WEATHER AND/OR OBSTRUCTIONS TO VISIBILITY.

* = USE WITH CAUTION. THE STATIONS MARKED WITH AN ASTERISK MAY NOT
REPORT WEATHER SUCH AS PRECIPITATION, FOG, OR THUNDER AND ARE NOT
QUALITY CONTROLLED BY NWS.

THE REMARK "TC" DENOTES TEMPERATURE READING IN DEGREES CELSIUS.

GAZ001>058-241000-
NORTH GEORGIA

CITY           SKY/WX    TMP DP  RH WIND       PRES   REMARKS
ATLANTA        CLOUDY    72  71  97 SW8       29.98R
ATHENS         MOCLDY    72  72 100 VRB3      29.96S
CHAMBLEE       CLOUDY    72  69  90 SW9       29.97R
PEACHTREE CITY CLOUDY    73  72  96 W3        29.99R
ROME           LGT RAIN  74  74 100 SW5       29.95R
WEST ATLANTA   CLOUDY    73  72  96 SW6       29.97R
GAINESVILLE    CLOUDY    73  72  96 W10       29.98S
CARTERSVILLE   CLOUDY    72  72 100 CALM      29.97R


CITY           SKY/WX    TMP DP  RH WIND       PRES   REMARKS
DALTON*        CLOUDY    72  72 100 CALM      29.95S
MARIETTA       CLOUDY    72  70  94 SW8       29.97R
CANTON*        RAIN      73  73 100 W6        29.98S
$$

GAZ059>098-102>109-241000-
CENTRAL GEORGIA

CITY           SKY/WX    TMP DP  RH WIND       PRES   REMARKS
AUGUSTA-BUSH   CLEAR     78  74  87 S3        29.95R
AUGUSTA-DANIEL CLEAR     79  72  79 SW5       29.97R
COLUMBUS       MOCLDY    74  72  93 CALM      29.97F
MACON          CLEAR     75  70  84 SW6       29.97R
ROBINS AFB     CLEAR     77  72  83 SW6       29.97R


CITY           SKY/WX    TMP DP  RH WIND       PRES   REMARKS
LAGRANGE*      CLOUDY    74  73  99 SW3       29.98F
SYLVANIA*      MOCLDY    77  76  98 CALM      29.99S
MILLEDGEVILLE* MOCLDY    75  73  94 CALM      29.96S
$$

GAZ099>101-110>166-241000-
SOUTH GEORGIA

CITY           SKY/WX    TMP DP  RH WIND       PRES   REMARKS
SAVANNAH       CLEAR     77  72  84 SW6       30.00R
VALDOSTA       MOCLDY    70  70 100 CALM      30.00S FOG
ALMA           CLEAR     74  72  93 CALM      30.00R
ST SIMONS      CLEAR     79  76  90 SW7       30.00S
FT STEWART     CLEAR     74  71  90 CALM      29.98R
ALBANY         CLEAR     73  72  96 CALM      30.01F
HUNTER AFB     CLEAR     78  74  89 CALM      29.97R
MOODY AFB      CLEAR     75  74  95 W6        29.99S
BRUNSWICK      CLEAR     77  75  94 SW5       30.01S


CITY           SKY/WX    TMP DP  RH WIND       PRES   REMARKS
BAINBRIDGE*    PTCLDY    81  79  94 CALM      30.00S
MOULTRIE*      CLEAR     75  73  94 CALM      30.02S FOG
VIDALIA*       PTCLDY    77  73  88 W3        30.00S
WAYCROSS*      CLEAR     76  76 100 S5        30.00S
DOUGLAS*       MOCLDY    75  73  94 W3        30.02R
$$




USA.gov is the U.S. government's official web portal to all federal, state and local government web resources and services.